SITRO-AIS 11 (SHEFFER)

Last updated on Wed Nov 05 2025 00:03:48 GMT+0000 (Coordinated Universal Time)

1 57208U 23091AU 25308.59590123 .00017123 00000+0 60539-3 0 9998 2 57208 97.5423 10.2951 0009085 140.5285 219.6618 15.29210942130359
UTC large
Height (km)
Speed (km/s)
/
Latitude / Longitude
Inclination (degrees)
Orbital Period (minutes)
Azimuth
Elevation
Range (km)
Doppler Factor

Next 0 passes for location: London (51.5072 / 0.1276)

Sorry there are no passes over London.